STARLINK-4507 (53403 NORAD) Tracking and Keplerian Element Data

This shows tracking and keplerian element data for the satellite.

Feedback or suggestion? Click here.




ElementValue
Catalog53403
NameSTARLINK-4507
Epoch Orbit789
Epoch Day270.25001157
Epoch Year2022
RAAN17.9489
Inclination53.2188
Eccentricity0.0001441
Argument of Perigee62.4734
Mean Anonmoly275.5991
Mean Motion15.08837502
Decay Rate8.704E-05
L11 53403U 22097R 22270.25001157 .00008704 00000+0 56432-3 0 9990
L22 53403 53.2188 17.9489 0001441 62.4734 275.5991 15.08837502 7899

Live tracking and technical data element details for STARLINK-4507 (NORAD 53403). STARLINK-4507 can be tracked NOW for your location showing map with azimuth and elevation plus other details from your city location.

Track the satellite on the map from your city or location and see movement details for azimuth, elevation, latitude, longitude, range, height, and movement on the map or in text.







IsCatalogInMostPopularTable: catalog: 53403, numindb: 4
Update: records affected: 1



GetName: 53403 STARLINK-4507

Hit Count: updated at: Fri, 30 Sep 2022 03:20:23 GMT